Powrót do katalogu

STARLINK-5751

AktywnyŁącznośćVLEO
NORAD 55576·PAYLOAD·🇺🇸 United States

Wystrzelony Feb 12, 2023 z Cape Canaveral Space Force Station

Loading…

Następne Przeloty (najbliższe 24 godziny)

TLE

ŚwieżeSource: CelesTrak SupGP

Epoka: Sep 14, 2026, 21:08 UTC

1 55576C 23020H   26257.88104167 -.00015831  00000+0 -57341-3 0  2571
2 55576  43.0027 350.9609 0001864 274.2457 126.0278 15.27585650    19

Śledź STARLINK-5751 w czasie rzeczywistym z AllMySat

Download on the App Store